This demonstration page uses our WeatherBlox Daily Observations layout. Learn more.

Left ArrowRight Arrow

39.92423, -83.80882

Hourly Observations for April 18, 2022

Temp ( °F °C ) Dew Point ( °F °C ) Humidity (%) Winds ( mph kmh ) Pressure ( in mb ) Visibility ( mi km ) Precip ( " mm )
12:56 am 00:56 Clear 37 2.8 28 -2.2 70 70 ENE 10 17 30.14 1021 10 16 0.00 0.00
1:56 am 01:56 Clear 38 3.3 28 -2.2 68 68 ENE 14 22 30.09 1019 10 16 0.00 0.00
2:56 am 02:56 Partly Cloudy 38 3.3 27 -2.8 65 65 E 15 24 30.06 1018 10 16 0.00 0.00
3:56 am 03:56 Clear 38 3.3 27 -2.8 65 65 E 14 22 30.02 1017 10 16 0.00 0.00
4:56 am 04:56 Cloudy 38 3.3 27 -2.8 65 65 ENE 10 17 29.98 1015 10 16 0.00 0.00
5:56 am 05:56 Cloudy 39 3.9 26 -3.3 60 60 ENE 13 20 29.97 1015 10 16 0.00 0.00
6:56 am 06:56 Cloudy with Light Rain 37 2.8 31 -0.6 79 79 NE 6 9 29.99 1016 10 16 0.00 0.00
7:10 am 07:10 Cloudy with Light Snow 37 3 34 1 87 87 NE 3 6 30.02 1017 4 6 0.00 0.00
7:56 am 07:56 Cloudy with Light Snow 35 1.7 35 1.7 100 100 N 6 9 29.99 1016 4 6 0.00 0.00
8:56 am 08:56 Cloudy with Light Rain 36 2 N/A N/A N 7 11 29.98 1015 10 16 0.00 0.00
9:11 am 09:11 Cloudy with Light Rain 36 2 N/A N/A N 8 13 29.99 1016 10 16 0.00 0.00
9:42 am 09:42 Cloudy with Light Snow 34 1 N/A N/A NW 6 9 30.00 1016 2 3 0.00 0.00
9:54 am 09:54 Cloudy with Light Snow 34 1 N/A N/A WNW 6 9 30.00 1016 1 2 0.00 0.00
9:56 am 09:56 Cloudy with Light Snow 34 1 N/A N/A WNW 6 9 29.98 1015 1 2 0.00 0.00
10:00 am 10:00 Cloudy with Light Snow 34 1 N/A N/A WNW 8 13 30.00 1016 1 2 0.00 0.00
10:08 am 10:08 Cloudy with Light Snow N/A N/A N/A WNW 9 15 N/A 1 2 0.00 0.00
10:17 am 10:17 Cloudy with Light Snow N/A N/A N/A NW 10 17 N/A 1 2 0.00 0.00
10:25 am 10:25 Cloudy with Light Snow N/A N/A N/A NNW 9 15 N/A 1 2 0.00 0.00
10:34 am 10:34 Cloudy with Light Snow N/A N/A N/A NNW 9 15 N/A 1 2 0.00 0.00
10:52 am 10:52 Cloudy with Light Snow N/A N/A N/A NW 8 13 N/A 1 1 0.00 0.00
10:56 am 10:56 Cloudy with Snow N/A N/A N/A NW 9 15 N/A 1 1 0.00 0.00
11:04 am 11:04 Cloudy with Heavy Snow N/A N/A N/A NW 10 17 N/A 0 0 0.00 0.00
11:16 am 11:16 Cloudy with Snow N/A N/A N/A NW 10 17 N/A 1 1 0.00 0.00
11:33 am 11:33 Cloudy with Light Snow N/A N/A N/A NNW 12 19 N/A 1 1 0.00 0.00
11:38 am 11:38 Cloudy with Light Snow N/A N/A N/A NW 12 19 N/A 1 2 0.00 0.00
11:51 am 11:51 Cloudy with Light Snow N/A N/A N/A NNW 9 15 N/A 3 5 0.00 0.00
11:56 am 11:56 Cloudy with Light Snow N/A N/A N/A NW 9 15 N/A 3 4 0.00 0.00
12:06 pm 12:06 Cloudy with Light Snow N/A N/A N/A NW 9 15 N/A 2 2 0.00 0.00
12:23 pm 12:23 Cloudy with Light Snow 34 1 N/A N/A NW 7 11 30.00 1016 3 4 0.00 0.00
12:32 pm 12:32 Cloudy with Light Snow 34 1 N/A N/A NW 8 13 30.00 1016 4 6 0.00 0.00
12:44 pm 12:44 Cloudy with Light Snow 36 2 N/A N/A WNW 8 13 29.99 1016 9 14 0.00 0.00
12:56 pm 12:56 Cloudy with Light Snow 36 2 N/A N/A WNW 10 17 29.98 1015 9 14 0.00 0.00
1:56 pm 13:56 Cloudy 36 2 N/A N/A WNW 13 20 29.99 1016 10 16 0.00 0.00
2:56 pm 14:56 Cloudy 37 3 N/A N/A W 13 20 30.01 1016 10 16 0.00 0.00
3:56 pm 15:56 Cloudy 38 3.3 38 3.3 100 100 W 17 28 30.00 1016 10 16 0.00 0.00
4:23 pm 16:23 Cloudy 37 3 37 3 100 100 WNW 14 22 30.02 1017 10 16 0.00 0.00
4:56 pm 16:56 Cloudy 39 3.9 38 3.3 96 96 W 17 28 30.01 1016 10 16 0.00 0.00
5:48 pm 17:48 Cloudy 37 3 37 3 100 100 W 15 24 30.05 1018 10 16 0.00 0.00
5:56 pm 17:56 Cloudy with Light Rain 38 3.3 38 3.3 100 100 W 17 28 30.03 1017 10 16 0.00 0.00
6:43 pm 18:43 Cloudy 37 3 37 3 100 100 W 14 22 30.05 1018 10 16 0.00 0.00
6:56 pm 18:56 Cloudy with Light Rain 38 3.3 38 3.3 100 100 W 13 20 30.04 1017 10 16 0.00 0.00
7:56 pm 19:56 Cloudy with Light Rain 38 3.3 38 3.3 100 100 W 15 24 30.04 1017 10 16 0.00 0.00
8:09 pm 20:09 Cloudy with Light Rain 37 3 37 3 100 100 W 12 19 30.06 1018 10 16 0.00 0.00
8:26 pm 20:26 Cloudy with Light Rain 37 3 37 3 100 100 W 14 22 30.06 1018 10 16 0.00 0.00
8:56 pm 20:56 Cloudy 38 3.3 38 3.3 100 100 W 12 19 30.05 1018 10 16 0.00 0.00
9:23 pm 21:23 Cloudy 37 3 36 2 93 93 W 16 26 30.07 1018 10 16 0.00 0.00
9:56 pm 21:56 Cloudy 37 2.8 34 1.1 89 89 W 15 24 30.06 1018 10 16 0.00 0.00
10:56 pm 22:56 Cloudy 37 2.8 33 0.6 86 86 W 16 26 30.07 1018 10 16 0.00 0.00
11:06 pm 23:06 Cloudy 37 3 34 1 87 87 W 18 30 30.07 1018 10 16 0.00 0.00
11:56 pm 23:56 Cloudy 36 2.2 34 1.1 93 93 W 16 26 30.06 1018 10 16 0.00 0.00

Powered by AerisWeather